Location: Unspecified
(0.0000°N, 0.0000°E)
Time: 21:40:19
(UTC+00:00)

PAYLOAD B - Visible Passes

Search period start: 30 May 2024 00:00
Search period end: 09 June 2024 00:00
Orbit: 1415 x 1426 km, 82.5° (Epoch: 30 May)

Date Brightness Start Highest point End Pass type
(mag) Time Alt. Az. Time Alt. Az. Time Alt. Az.
30 May 9.3 05:09:29 10° SSE 05:17:19 42° E 05:25:03 10° NNE visible
30 May 10.6 19:31:54 10° WNW 19:35:01 12° W 19:38:09 10° WSW visible
31 May 10.8 04:07:18 10° ESE 04:08:32 10° E 04:09:45 10° E visible
31 May 9.2 18:18:20 10° NNW 18:26:15 47° W 18:34:13 10° SSW visible
01 Jun 9.6 04:47:10 10° SSE 04:54:36 35° E 05:01:58 10° NNE visible
01 Jun 10.5 19:07:38 10° WNW 19:12:19 16° W 19:17:00 10° SW visible
02 Jun 8.1 05:32:10 10° S 05:40:39 90° W 05:49:04 10° N visible
03 Jun 9.8 04:24:56 10° SSE 04:31:54 29° E 04:38:48 10° NE visible
03 Jun 10.4 18:43:55 10° NW 18:49:36 20° W 18:55:20 10° SW visible
04 Jun 8.2 05:09:30 10° S 05:17:57 77° E 05:26:20 10° N visible
05 Jun 10.0 04:02:51 10° SE 04:09:12 24° E 04:15:28 10° NE visible
05 Jun 10.3 18:20:27 10° NW 18:26:53 25° W 18:33:23 10° SW visible
06 Jun 8.4 04:46:54 10° S 04:55:15 65° E 05:03:31 10° NNE visible
07 Jun 10.2 03:40:58 10° SE 03:46:29 19° E 03:51:58 10° NE visible
08 Jun 8.7 04:24:22 10° SSE 04:32:32 54° E 04:40:39 10° NNE visible
